Tiempo cada hora Cedar City

Hoy, 19 Abril, Lunes

Tiempo Temperatura Precipitaciones Viento Presión Humedad
00:00 +6°C° 0 mm 1 mps 611 mmHg 34%
01:00 +5°C° 0 mm 1 mps 611 mmHg 36%
02:00 +5°C° 0 mm 1 mps 611 mmHg 36%
03:00 +5°C° 0 mm 1 mps 611 mmHg 37%
04:00 +5°C° 0 mm 1 mps 610 mmHg 38%
05:00 +7°C° 0 mm 1 mps 611 mmHg 34%
06:00 +9°C° 0 mm 1 mps 612 mmHg 30%
07:00 +11°C° 0 mm 1 mps 613 mmHg 26%
08:00 +13°C° 0 mm 2 mps 613 mmHg 23%
09:00 +14°C° 0 mm 3 mps 613 mmHg 21%
10:00 +15°C° 0 mm 4 mps 613 mmHg 18%
11:00 +16°C° 0 mm 6 mps 613 mmHg 18%
12:00 +17°C° 0 mm 7 mps 613 mmHg 17%
13:00 +18°C° 0 mm 8 mps 612 mmHg 16%
14:00 +18°C° 0 mm 9 mps 612 mmHg 16%
15:00 +18°C° 0 mm 9 mps 611 mmHg 16%
16:00 +18°C° 0 mm 10 mps 611 mmHg 17%
17:00 +16°C° 0 mm 9 mps 611 mmHg 20%
18:00 +15°C° 0 mm 8 mps 611 mmHg 23%
19:00 +13°C° 0 mm 6 mps 610 mmHg 26%
20:00 +10°C° 0 mm 5 mps 610 mmHg 29%
21:00 +8°C° 0 mm 4 mps 610 mmHg 33%
22:00 +8°C° 0 mm 3 mps 610 mmHg 36%
23:00 +7°C° 0 mm 3 mps 610 mmHg 40%

Mañana, 20 Abril, Martes

Tiempo Temperatura Precipitaciones Viento Presión Humedad
00:00 +5°C° 0 mm 3 mps 610 mmHg 45%
01:00 +4°C° 0 mm 3 mps 609 mmHg 49%
02:00 +3°C° 0 mm 3 mps 609 mmHg 52%
03:00 +4°C° 0 mm 2 mps 609 mmHg 55%
04:00 +3°C° 0 mm 2 mps 609 mmHg 59%
05:00 +4°C° 0 mm 2 mps 609 mmHg 52%
06:00 +6°C° 0 mm 2 mps 610 mmHg 46%
07:00 +7°C° 0 mm 2 mps 610 mmHg 40%
08:00 +9°C° 0 mm 2 mps 610 mmHg 35%
09:00 +12°C° 0 mm 2 mps 611 mmHg 30%
10:00 +14°C° 0 mm 2 mps 611 mmHg 25%
11:00 +14°C° 0 mm 3 mps 611 mmHg 24%
12:00 +16°C° 0 mm 3 mps 610 mmHg 23%
13:00 +17°C° 0 mm 4 mps 610 mmHg 22%
14:00 +17°C° 0 mm 4 mps 610 mmHg 21%
15:00 +17°C° 0 mm 3 mps 609 mmHg 20%
16:00 +17°C° 0 mm 3 mps 609 mmHg 20%
17:00 +14°C° 0 mm 3 mps 608 mmHg 23%
18:00 +14°C° 0 mm 2 mps 608 mmHg 26%
19:00 +12°C° 0 mm 2 mps 607 mmHg 29%
20:00 +10°C° 0 mm 2 mps 607 mmHg 30%
21:00 +9°C° 0 mm 2 mps 606 mmHg 31%
22:00 +8°C° 0 mm 2 mps 606 mmHg 33%
23:00 +8°C° 0 mm 2 mps 606 mmHg 34%

Pasado mañana, 21 Abril, Miércoles

Tiempo Temperatura Precipitaciones Viento Presión Humedad
00:00 +7°C° 0 mm 2 mps 605 mmHg 35%
01:00 +7°C° 0 mm 2 mps 605 mmHg 37%
02:00 +7°C° 0 mm 2 mps 605 mmHg 37%
03:00 +6°C° 0 mm 2 mps 604 mmHg 38%
04:00 +6°C° 0 mm 2 mps 604 mmHg 38%
05:00 +7°C° 0 mm 2 mps 605 mmHg 35%
06:00 +8°C° 0 mm 2 mps 605 mmHg 33%
07:00 +9°C° 0 mm 3 mps 605 mmHg 30%
08:00 +11°C° 0 mm 3 mps 606 mmHg 27%
09:00 +12°C° 0 mm 4 mps 606 mmHg 24%
10:00 +14°C° 0 mm 5 mps 607 mmHg 21%
11:00 +13°C° 0 mm 4 mps 607 mmHg 25%
12:00 +13°C° 0 mm 4 mps 606 mmHg 28%
13:00 +13°C° 0 mm 4 mps 606 mmHg 31%
14:00 +12°C° 0.2 mm 4 mps 606 mmHg 38%
15:00 +11°C° 0.2 mm 3 mps 606 mmHg 45%
16:00 +9°C° 0.2 mm 3 mps 606 mmHg 53%
17:00 +9°C° 0.1 mm 3 mps 606 mmHg 55%
18:00 +8°C° 0.1 mm 2 mps 606 mmHg 56%
19:00 +7°C° 0.1 mm 2 mps 605 mmHg 58%
20:00 +7°C° 0 mm 2 mps 605 mmHg 58%
21:00 +6°C° 0 mm 2 mps 605 mmHg 58%
22:00 +5°C° 0 mm 2 mps 606 mmHg 58%
23:00 +5°C° 0 mm 2 mps 605 mmHg 60%

22 Abril, Jueves

Tiempo Temperatura Precipitaciones Viento Presión Humedad
00:00 +4°C° 0 mm 2 mps 605 mmHg 63%
01:00 +5°C° 0 mm 1 mps 605 mmHg 65%
02:00 +5°C° 0 mm 1 mps 605 mmHg 66%
03:00 +4°C° 0 mm 1 mps 605 mmHg 67%
04:00 +4°C° 0 mm 1 mps 605 mmHg 67%
05:00 +6°C° 0 mm 1 mps 606 mmHg 61%
06:00 +7°C° 0 mm 1 mps 607 mmHg 55%
07:00 +9°C° 0 mm 1 mps 608 mmHg 48%
08:00 +9°C° 0 mm 2 mps 608 mmHg 42%
09:00 +12°C° 0 mm 2 mps 609 mmHg 36%
10:00 +13°C° 0 mm 2 mps 609 mmHg 30%
11:00 +13°C° 0 mm 3 mps 609 mmHg 26%
12:00 +14°C° 0 mm 3 mps 609 mmHg 22%
13:00 +16°C° 0 mm 3 mps 609 mmHg 18%
14:00 +16°C° 0 mm 3 mps 609 mmHg 17%
15:00 +16°C° 0 mm 3 mps 608 mmHg 16%
16:00 +16°C° 0 mm 3 mps 608 mmHg 15%
17:00 +14°C° 0 mm 2 mps 607 mmHg 17%
18:00 +12°C° 0 mm 2 mps 607 mmHg 20%
19:00 +10°C° 0 mm 1 mps 606 mmHg 22%
20:00 +10°C° 0 mm 1 mps 606 mmHg 23%
21:00 +10°C° 0 mm 1 mps 606 mmHg 23%
22:00 +8°C° 0 mm 2 mps 606 mmHg 23%
23:00 +8°C° 0 mm 2 mps 606 mmHg 23%

23 Abril, Viernes

Tiempo Temperatura Precipitaciones Viento Presión Humedad
00:00 +8°C° 0 mm 2 mps 606 mmHg 23%
01:00 +7°C° 0 mm 2 mps 606 mmHg 23%
02:00 +7°C° 0 mm 2 mps 606 mmHg 25%
03:00 +7°C° 0 mm 2 mps 606 mmHg 26%
04:00 +6°C° 0 mm 2 mps 606 mmHg 27%
05:00 +8°C° 0 mm 2 mps 607 mmHg 28%
06:00 +10°C° 0 mm 3 mps 607 mmHg 29%
07:00 +12°C° 0 mm 3 mps 608 mmHg 30%
08:00 +13°C° 0 mm 4 mps 609 mmHg 26%
09:00 +15°C° 0 mm 5 mps 609 mmHg 22%
10:00 +16°C° 0 mm 6 mps 609 mmHg 19%
11:00 +17°C° 0 mm 7 mps 609 mmHg 18%
12:00 +18°C° 0 mm 9 mps 609 mmHg 17%
13:00 +19°C° 0 mm 10 mps 610 mmHg 16%
14:00 +18°C° 0 mm 9 mps 609 mmHg 16%
15:00 +18°C° 0 mm 9 mps 609 mmHg 17%
16:00 +18°C° 0 mm 9 mps 609 mmHg 18%
17:00 +17°C° 0 mm 7 mps 609 mmHg 22%
18:00 +15°C° 0 mm 5 mps 608 mmHg 25%
19:00 +13°C° 0 mm 3 mps 608 mmHg 29%
20:00 +14°C° 0 mm 2 mps 609 mmHg 30%
21:00 +14°C° 0 mm 2 mps 609 mmHg 30%
22:00 +14°C° 0 mm 2 mps 609 mmHg 31%
23:00 +13°C° 0 mm 2 mps 609 mmHg 32%

24 Abril, Sábado

Tiempo Temperatura Precipitaciones Viento Presión Humedad
00:00 +12°C° 0 mm 2 mps 609 mmHg 34%
01:00 +12°C° 0 mm 2 mps 609 mmHg 35%
02:00 +10°C° 0 mm 2 mps 609 mmHg 37%
03:00 +9°C° 0 mm 2 mps 609 mmHg 38%
04:00 +9°C° 0 mm 3 mps 609 mmHg 39%
05:00 +10°C° 0 mm 3 mps 609 mmHg 37%
06:00 +12°C° 0 mm 3 mps 610 mmHg 34%
07:00 +13°C° 0 mm 3 mps 611 mmHg 32%
08:00 +15°C° 0 mm 4 mps 611 mmHg 30%
09:00 +16°C° 0 mm 5 mps 611 mmHg 28%
10:00 +17°C° 0 mm 7 mps 612 mmHg 26%
11:00 +18°C° 0 mm 7 mps 611 mmHg 25%
12:00 +18°C° 0 mm 8 mps 611 mmHg 23%
13:00 +20°C° 0 mm 8 mps 611 mmHg 22%
14:00 +18°C° 0 mm 9 mps 611 mmHg 22%
15:00 +18°C° 0 mm 9 mps 610 mmHg 22%
16:00 +17°C° 0 mm 9 mps 610 mmHg 22%
17:00 +16°C° 0 mm 8 mps 610 mmHg 25%
18:00 +15°C° 0 mm 6 mps 610 mmHg 28%
19:00 +14°C° 0 mm 5 mps 610 mmHg 31%
20:00 +13°C° 0 mm 5 mps 609 mmHg 32%
21:00 +12°C° 0 mm 4 mps 609 mmHg 32%
22:00 +12°C° 0 mm 4 mps 609 mmHg 33%
23:00 +11°C° 0 mm 4 mps 609 mmHg 34%
Mostrar más

Necesitamos Su Consentimiento

Meteoprog y nuestros Proveedores de Servicios pueden almacenar y acceder a sus datos personales como cookies, identificadores de dispositivo u otras tecnologías similares de su dispositivo y procesar dichos datos para personalizar contenido y anuncios, además de ofrecer funciones de redes sociales y analizar el tráfico.

  • Almacenar y/o acceder a información en su dispositivo

    Se puede almacenar o acceder a cookies, identificadores de dispositivo u otra información de su dispositivo para los fines anteriormente indicados.

  • Anuncios y contenido personalizados, medición de anuncios y contenido, percepciones del público, y desarrollo de productos

    Los anuncios y el contenido pueden personalizarse en base a su perfil. Se pueden añadir más datos para personalizar mejor los anuncios y contenidos. Se puede medir el rendimiento de los anuncios y contenidos. Se puede obtener la percepción sobre el público que ha visto los anuncios y contenidos. Dichos datos pueden usarse para desarrollar o mejorar la experiencia del usuario, sistemas y software.

Al hacer clic en ‘Estoy De Acuerdo’ usted permitirá el uso de las cookies, identificadores de dispositivo, balizas web u otras tecnologías similares indicadas. Su configuración puede cambiarse desde el navegador de su dispositivo.

Para ciertos fines, los intereses legítimos pueden ser considerados por encima del consentimiento. Puede leer más sobre ello en nuestra Política de Privacidad y Cookies.